Weather History for KLGA - November, 2012

Change the Weather History Date:

Sunday, November 4, 2012

  Actual Average Record
Temperature  
Mean Temperature 47 °F 52 °F  
Max Temperature 52 °F 59 °F 76 °F (1987)
Min Temperature 41 °F 45 °F 29 °F (1951)
Degree Days  
Heating Degree Days 18 13  
Month to date heating degree days 70 51  
Since 1 July heating degree days 252 323  
Cooling Degree Days 0 0  
Month to date cooling degree days 0 0  
Year to date cooling degree days 1511 1213  
Moisture  
Dew Point 32 °F    
Average Humidity 60    
Maximum Humidity 76    
Minimum Humidity 44    
Precipitation  
Precipitation 0.00 in 0.11 in 3.05 in (1950)
Month to date precipitation T 0.46  
Year to date precipitation 31.06 38.22  
Snow  
Snow 0.00 in 0.00 in - ()
Month to date snowfall 0.0 0.0  
Since 1 July snowfall 0.0 0.0  
Snow Depth 0.00 in    
Sea Level Pressure  
Sea Level Pressure 29.95 in    
Wind  
Wind Speed 13 mph (NW)    
Max Wind Speed 20 mph    
Max Gust Speed 25 mph    
Visibility 10 miles    
Events      
T = Trace of Precipitation, MM = Missing Value Source: NWS Daily Summary

Daily Weather History Graph

Daily Weather History Graph

Search for Another Location

Airport or City:

Trip Planner

Search our weather history database for the weather conditions in past years. The results will help you decide how hot, cold, wet, or windy it might be!

Date:

Astronomy

Nov. 04, 2012 Rise Set
Actual Time 6:30 AM EST 4:47 PM EST
Civil Twilight 6:01 AM EST 5:16 PM EST
Nautical Twilight 5:28 AM EST 5:48 PM EST
Astronomical Twilight 4:56 AM EST 6:20 PM EST
Moon 9:22 PM EST (11/4) 11:12 AM EST (11/4)
Length of Visible Light 11h 14m
Length of Day
10h 17m
Waning Gibbous, 72% of the Moon is Illuminated
Nov 4
Waning Gibbous
Nov 6
Last Quarter
Nov 13
New
Nov 20
First Quarter
Nov 28
Full

Hourly Weather History & Observations

Time (EST) Temp. Windchill Dew Point Humidity Pressure Visibility Wind Dir Wind Speed Gust Speed Precip Events Conditions
12:51 AM 43.0 °F 35.7 °F 34.0 °F 71% 29.96 in 10.0 mi WNW 15.0 mph 24.2 mph N/A   Partly Cloudy
1:51 AM 43.0 °F 35.4 °F 34.0 °F 71% 29.95 in 10.0 mi NW 16.1 mph 24.2 mph N/A   Partly Cloudy
1:51 AM 43.0 °F 35.4 °F 35.1 °F 74% 29.95 in 10.0 mi WNW 16.1 mph - N/A   Clear
2:51 AM 42.1 °F 34.9 °F 36.0 °F 79% 29.94 in 10.0 mi WNW 13.8 mph - N/A   Clear
3:51 AM 42.1 °F 34.5 °F 36.0 °F 79% 29.94 in 10.0 mi NW 15.0 mph 23.0 mph N/A   Clear
4:51 AM 42.1 °F 36.1 °F 35.1 °F 76% 29.96 in 10.0 mi WNW 10.4 mph - N/A   Partly Cloudy
5:51 AM 42.1 °F 35.7 °F 36.0 °F 79% 29.96 in 10.0 mi WNW 11.5 mph - N/A   Partly Cloudy
6:51 AM 42.1 °F 35.2 °F 35.1 °F 76% 29.97 in 10.0 mi NW 12.7 mph - N/A   Scattered Clouds
7:51 AM 42.8 °F 36.2 °F 30.2 °F 61% 29.98 in 10.0 mi NW 12.7 mph - N/A   Scattered Clouds
8:51 AM 44.1 °F 37.7 °F 30.9 °F 60% 29.98 in 10.0 mi WNW 12.7 mph - N/A   Scattered Clouds
9:51 AM 46.0 °F 41.0 °F 30.6 °F 55% 29.97 in 10.0 mi WNW 10.4 mph - N/A   Scattered Clouds
10:51 AM 46.4 °F 42.4 °F 30.2 °F 53% 29.96 in 10.0 mi NNW 8.1 mph - N/A   Scattered Clouds
11:51 AM 48.9 °F - 30.6 °F 49% 29.94 in 10.0 mi NNW 9.2 mph - N/A   Scattered Clouds
12:51 PM 51.1 °F - 30.2 °F 45% 29.93 in 10.0 mi West 8.1 mph - N/A   Scattered Clouds
1:51 PM 51.1 °F - 32.0 °F 48% 29.91 in 10.0 mi WNW 11.5 mph - N/A   Scattered Clouds
2:51 PM 51.1 °F - 30.9 °F 46% 29.92 in 10.0 mi West 13.8 mph - N/A   Mostly Cloudy
3:51 PM 48.9 °F - 30.0 °F 48% 29.93 in 10.0 mi WNW 17.3 mph - N/A   Mostly Cloudy
4:51 PM 48.0 °F - 29.3 °F 48% 29.94 in 10.0 mi NW 17.3 mph - N/A   Mostly Cloudy
5:51 PM 46.9 °F - 29.3 °F 50% 29.95 in 10.0 mi WNW 15.0 mph - N/A   Mostly Cloudy
6:51 PM 46.0 °F 39.3 °F 29.1 °F 52% 29.96 in 10.0 mi NW 16.1 mph - N/A   Mostly Cloudy
7:51 PM 46.0 °F 40.6 °F 30.9 °F 56% 29.97 in 10.0 mi NW 11.5 mph - N/A   Mostly Cloudy
8:51 PM 45.0 °F 39.7 °F 30.9 °F 58% 29.98 in 10.0 mi NW 10.4 mph - N/A   Overcast
9:51 PM 45.0 °F 38.2 °F 30.0 °F 56% 29.98 in 10.0 mi NNW 15.0 mph - N/A   Overcast
10:51 PM 44.1 °F 38.6 °F 30.0 °F 58% 29.97 in 10.0 mi North 10.4 mph - N/A   Overcast